Location: Street
(51.1247°N, 2.7429°W)
Time: 16:09:41
(UTC+01:00)

UWE-3 - Pass Details

Date: 01 April 2023
Orbit: 576 x 669 km, 97.7° (Epoch: 02 June)

Event Time Altitude Azimuth Distance (km) Brightness Sun altitude
Rises 05:44:23 0° 3° (N) 2,997 ? -10.4°
Reaches altitude 10° 05:47:12 10° 345° (NNW) 2,065 ? -10.0°
Maximum altitude 05:50:15 18° 302° (WNW) 1,562 ? -9.6°
Enters shadow 05:52:52 12° 263° (W) 1,918 ? -9.2°
